Location: Downe
(51.3167°N, 0.0500°E)
Time: 20:42:04
(UTC+00:00)

COSMOS 2428 - Pass Details

Date: 17 November 2019
Orbit: 844 x 858 km, 70.9° (Epoch: 08 December)

Event Time Altitude Azimuth Distance (km) Brightness Sun altitude
Exits shadow 06:22:04 - 330° (NNW) 3,162 5.2 -9.0°
Reaches altitude 10° 06:23:50 10° 331° (NNW) 2,489 4.7 -8.8°
Maximum altitude 06:29:35 83° 59° (ENE) 866 2.8 -7.9°
Drops below altitude 10° 06:35:18 10° 148° (SSE) 2,483 6.0 -7.1°
Sets 06:37:45 0° 149° (SSE) 3,417 6.8 -6.7°
